Date String (YYYY-MM-DD hh:mm:ss) UTC,Instrument flags,Ambient pressure (hPa),Sample flow (lpm),Bypass flow (lpm),Sample temperature (°C),Ambient temperature (°C),ASC tube jacket temperature (°C),LED temperature (°C),Box temperature (°C),Sample RH (%),Span deviation,Mass concentration (μg/m³),Mass concentration (μg/m³),Mass concentration (μg/m³)
DateTimeUTC,F1_M11,P_M11,Q1_M11,Q2_M11,T1_M11,T2_M11,T3_M11,T4_M11,T5_M11,U1_M11,ZSPAN_M11,X0_M11,X2_M11,X1_M11
2021-09-04 09:00:00,,0830.4,4.99,0.00,30.3,29.4,00.0,39.4,32.1,31.3,-000.6,0015.24,0009.73,0009.10
2021-09-04 09:01:00,,0830.3,5.01,0.00,30.3,29.4,00.0,39.4,32.1,31.7,-000.7,0014.91,0009.70,0009.07
2021-09-04 09:02:00,,0830.3,5.01,0.00,30.4,29.5,00.0,39.4,32.1,31.9,-000.6,0015.01,0009.71,0009.08
2021-09-04 09:03:00,,0830.3,5.00,0.00,30.4,29.5,00.0,39.4,32.1,32.0,-000.6,0014.79,0009.77,0009.11
2021-09-04 09:04:00,,0830.2,4.99,0.00,30.4,29.5,00.0,39.4,32.1,32.2,-000.7,0014.59,0009.83,0009.13
2021-09-04 09:05:00,,0830.3,5.01,0.00,30.4,29.5,00.0,39.5,32.1,32.2,-000.6,0015.01,0009.85,0009.16
2021-09-04 09:06:00,,0830.3,4.99,0.00,30.4,29.5,00.0,39.5,32.1,32.3,-000.7,0015.50,0009.94,0009.21
2021-09-04 09:07:00,,0830.2,5.00,0.00,30.4,28.9,00.0,39.5,31.9,32.4,-000.7,0015.74,0009.98,0009.26
2021-09-04 09:08:00,,0830.2,5.00,0.00,30.2,26.8,00.0,39.4,31.5,32.6,-000.9,0015.59,0010.00,0009.31
2021-09-04 09:09:00,,0830.2,5.00,0.00,30.1,26.2,00.0,39.4,31.3,32.9,-000.7,0015.82,0010.01,0009.36
2021-09-04 09:10:00,,0830.2,5.00,0.00,29.9,26.4,00.0,39.3,31.2,33.2,-000.8,0016.37,0010.09,0009.42
2021-09-04 09:11:00,,0830.2,5.01,0.00,29.9,26.9,00.0,39.2,31.3,33.4,-000.9,0016.56,0010.21,0009.48
2021-09-04 09:12:00,,0830.2,5.01,0.00,29.8,27.3,00.0,39.2,31.3,33.7,-000.9,0017.11,0010.30,0009.51
2021-09-04 09:13:00,,0830.2,4.98,0.00,29.8,27.6,00.0,39.2,31.3,33.7,-000.9,0017.11,0010.40,0009.53
2021-09-04 09:14:00,,0830.2,5.01,0.00,29.8,27.9,00.0,39.1,31.3,33.8,-000.9,0017.63,0010.52,0009.55
2021-09-04 09:15:00,,0830.1,4.99,0.00,29.8,28.1,00.0,39.1,31.4,33.9,-000.9,0018.19,0010.59,0009.56
2021-09-04 09:16:00,,0830.1,5.01,0.00,29.8,28.2,00.0,39.1,31.4,33.9,-001.1,0018.26,0010.61,0009.56
2021-09-04 09:17:00,,0830.1,5.00,0.00,29.8,28.4,00.0,39.1,31.5,34.0,-001.0,0018.44,0010.65,0009.54
2021-09-04 09:18:00,,0830.2,4.99,0.00,29.8,28.5,00.0,39.1,31.5,34.0,-000.9,0018.09,0010.65,0009.53
2021-09-04 09:19:00,,0830.1,5.00,0.00,29.8,28.6,00.0,39.1,31.6,33.9,-001.0,0018.39,0010.68,0009.53
2021-09-04 09:20:00,,0830.1,5.01,0.00,29.9,28.6,00.0,39.1,31.5,33.9,-001.0,0018.73,0010.75,0009.55
2021-09-04 09:21:00,,0830.1,4.99,0.00,29.9,28.7,00.0,39.1,31.6,33.9,-001.0,0018.11,0010.77,0009.57
2021-09-04 09:22:00,,0830.1,5.01,0.00,29.9,28.7,00.0,39.1,31.6,33.8,-001.0,0017.94,0010.77,0009.59
2021-09-04 09:23:00,,0830.2,5.00,0.00,29.9,28.8,00.0,39.1,31.6,33.8,-000.9,0017.24,0010.73,0009.62
2021-09-04 09:24:00,,0830.2,5.01,0.00,29.9,28.8,00.0,39.1,31.6,33.8,-000.8,0017.01,0010.67,0009.64
2021-09-04 09:25:00,,0830.2,4.99,0.00,29.9,28.9,00.0,39.1,31.6,33.8,-000.6,0016.96,0010.58,0009.65
2021-09-04 09:26:00,,0830.3,5.01,0.00,29.9,28.9,00.0,39.1,31.7,33.7,-000.5,0017.04,0010.53,0009.69
2021-09-04 09:27:00,,0830.3,4.99,0.00,30.0,29.0,00.0,39.1,31.7,33.6,-000.5,0017.15,0010.57,0009.71
2021-09-04 09:28:00,,0830.2,5.00,0.00,30.0,29.0,00.0,39.1,31.7,33.5,-000.5,0016.80,0010.56,0009.75
2021-09-04 09:29:00,,0830.2,5.01,0.00,30.0,29.1,00.0,39.1,31.7,33.3,-000.9,0016.58,0010.54,0009.78
2021-09-04 09:30:00,,0830.2,5.00,0.00,30.0,29.1,00.0,39.1,31.8,33.1,-000.9,0016.35,0010.55,0009.81
2021-09-04 09:31:00,,0830.3,5.01,0.00,30.0,29.1,00.0,39.1,31.8,33.1,-000.8,0016.06,0010.51,0009.80
2021-09-04 09:32:00,,0830.2,5.00,0.00,30.1,29.2,00.0,39.1,31.8,33.0,-000.6,0016.12,0010.54,0009.80
2021-09-04 09:33:00,,0830.2,5.00,0.00,30.1,29.2,00.0,39.1,31.8,33.0,-000.6,0016.15,0010.53,0009.80
2021-09-04 09:34:00,,0830.2,5.00,0.00,30.1,29.2,00.0,39.2,31.9,32.9,-000.8,0016.04,0010.53,0009.81
2021-09-04 09:35:00,,0830.3,5.00,0.00,30.1,29.2,00.0,39.2,31.9,32.7,-000.8,0016.06,0010.55,0009.81
2021-09-04 09:36:00,,0830.3,5.00,0.00,30.1,29.3,00.0,39.2,31.9,32.5,-000.9,0015.84,0010.61,0009.82
2021-09-04 09:37:00,,0830.3,5.00,0.00,30.1,29.3,00.0,39.2,31.9,32.5,-000.8,0015.18,0010.61,0009.80
2021-09-04 09:38:00,,0830.2,5.00,0.00,30.1,29.3,00.0,39.2,31.9,32.4,-000.7,0014.92,0010.57,0009.81
2021-09-04 09:39:00,,0830.3,5.00,0.00,30.1,29.3,00.0,39.2,31.9,32.3,-000.9,0015.11,0010.54,0009.79
2021-09-04 09:40:00,,0830.2,5.01,0.00,30.1,29.4,00.0,39.2,31.9,32.1,-000.7,0015.30,0010.51,0009.77
2021-09-04 09:41:00,,0830.3,4.99,0.00,30.1,29.4,00.0,39.3,32.0,31.9,-000.6,0015.38,0010.45,0009.71
2021-09-04 09:42:00,,0830.2,5.02,0.00,30.2,29.4,00.0,39.3,32.0,31.8,-000.6,0015.64,0010.39,0009.65
2021-09-04 09:43:00,,0830.3,5.00,0.00,30.2,29.4,00.0,39.3,32.0,31.7,-001.0,0016.25,0010.33,0009.61
2021-09-04 09:44:00,,0830.3,5.00,0.00,30.2,29.4,00.0,39.3,32.0,31.6,-001.0,0016.22,0010.27,0009.57
2021-09-04 09:45:00,,0830.2,5.00,0.00,30.2,29.4,00.0,39.3,32.0,31.6,-000.8,0016.16,0010.22,0009.51
2021-09-04 09:46:00,,0830.2,4.99,0.00,30.2,29.4,00.0,39.3,32.0,31.5,-000.8,0016.25,0010.16,0009.45
2021-09-04 09:47:00,,0830.2,5.00,0.00,30.2,29.4,00.0,39.3,32.0,31.5,-000.7,0016.39,0010.05,0009.37
2021-09-04 09:48:00,,0830.2,5.00,0.00,30.2,29.4,00.0,39.3,32.0,31.4,-000.7,0016.55,0009.95,0009.32
2021-09-04 09:49:00,,0830.3,5.00,0.00,30.2,29.4,00.0,39.4,32.0,31.4,-000.6,0016.95,0009.93,0009.26
2021-09-04 09:50:00,,0830.3,4.99,0.00,30.3,29.4,00.0,39.4,32.0,31.3,-000.1,0016.78,0009.88,0009.22
2021-09-04 09:51:00,,0830.2,5.00,0.00,30.3,29.5,00.0,39.4,32.0,31.2,0000.3,0017.00,0009.85,0009.20
2021-09-04 09:52:00,,0830.2,5.00,0.00,30.3,29.5,00.0,39.4,32.0,31.2,0000.6,0017.51,0009.82,0009.19
2021-09-04 09:53:00,,0830.2,4.99,0.00,30.3,29.5,00.0,39.4,32.0,31.2,0000.6,0017.26,0009.81,0009.20
2021-09-04 09:54:00,,0830.2,5.00,0.00,30.3,29.5,00.0,39.4,32.0,31.2,0000.9,0016.58,0009.82,0009.20
2021-09-04 09:55:00,,0830.2,5.00,0.00,30.3,29.5,00.0,39.4,32.1,31.1,0001.2,0016.63,0009.84,0009.19
2021-09-04 09:56:00,,0830.2,5.01,0.00,30.3,29.5,00.0,39.4,32.1,31.1,0001.1,0016.66,0009.85,0009.18
2021-09-04 09:57:00,,0830.2,5.00,0.00,30.3,29.5,00.0,39.4,32.1,31.1,0001.0,0016.27,0009.80,0009.17
2021-09-04 09:58:00,,0830.2,4.98,0.00,30.3,29.5,00.0,39.4,32.1,31.0,0000.7,0015.84,0009.76,0009.16
2021-09-04 09:59:00,,0830.3,5.01,0.00,30.3,29.5,00.0,39.5,32.1,31.1,0000.6,0015.37,0009.73,0009.16
